RH
48 45 48 53 50 47 52 63 78 86 72 52 50 50 48 42 45 45 53 50 16 16 18 19 20 19 19 20 20 21 25 30 33 39 41 39 34 33 31 30 29 28 28
58 59 58 63 65 69 72 82 98 93 76 55 57 53 50 45 44 50 53 39 15 17 19 21 23 23 23 23 21 21 22 27 30 37 40 40 38 37 36 36 34 29 27
60 64 68 69 75 77 88 99 92 83 73 61 64 53 50 49 48 57 54 22 16 18 20 24 25 24 21 19 20 21 22 24 28 30 36 38 36 37 33 33 35 34 31
64 70 81 81 81 86 94 100 95 91 70 65 62 62 68 56 53 62 55 18 16 19 22 26 25 22 20 19 19 20 22 24 27 29 31 35 39 38 37 38 33 35 35
73 76 93 94 92 94 99 100 89 88 79 66 67 69 62 60 63 64 44 18 19 21 23 26 23 22 23 20 19 20 21 24 29 31 30 33 35 38 40 40 36 36 42
88 91 100 99 98 100 100 100 91 84 83 81 80 82 73 64 65 67 32 21 20 21 25 26 26 26 24 20 18 20 22 24 30 34 35 33 33 34 37 40 43 40 41
100 100 100 100 100 100 100 86 85 87 81 86 76 81 75 58 69 66 26 23 22 24 26 28 28 27 26 21 19 20 22 25 30 36 40 41 38 38 39 42 44 46 45
100 100 100 100 100 100 99 93 82 92 83 78 89 74 69 59 69 43 23 25 26 27 28 30 28 30 28 24 21 20 23 27 32 35 39 43 44 44 43 43 44 46 46
100 100 100 100 100 100 98 83 85 83 69 71 83 65 69 72 72 34 25 27 29 29 30 30 31 32 31 27 24 24 25 28 34 35 37 43 45 46 46 44 44 46 48
100 100 100 100 98 100 92 95 86 76 62 79 80 62 67 78 45 33 30 31 31 30 31 32 34 34 32 28 27 28 29 31 31 33 35 38 44 47 47 48 48 49 49
100 100 100 100 99 100 89 79 80 68 64 73 62 64 72 53 36 36 36 33 32 33 33 36 35 33 31 28 29 29 31 31 33 33 33 34 40 42 44 46 47 50 54
100 100 94 100 98 98 87 74 64 56 67 59 69 63 53 45 40 37 37 36 35 33 35 38 40 36 36 34 33 31 32 28 30 33 35 36 36 36 36 37 38 43 49
100 100 100 100 100 92 79 61 47 58 64 77 54 44 39 35 36 37 38 37 38 43 41 42 35 34 35 37 37 34 33 32 34 36 38 41 46 50 50 49 48 44 43
100 100 100 100 97 78 58 52 70 70 82 60 45 38 37 36 36 38 38 36 37 38 50 49 42 33 34 33 32 37 45 39 38 38 41 42 41 43 47 49 49 46 44
100 100 100 97 76 59 47 58 57 51 48 44 38 35 34 36 37 37 38 37 35 35 44 60 48 48 42 36 40 39 40 45 47 49 47 45 44 46 42 40 40 42 54
100 100 100 80 54 41 35 38 36 35 37 39 38 34 35 36 37 38 38 39 42 39 39 43 45 46 48 58 63 76 76 69 63 66 62 65 67 66 66 59 55 50 48
100 100 85 52 35 34 34 35 34 34 36 39 40 39 37 40 40 39 39 40 41 36 34 39 39 40 46 57 71 76 89 92 100 99 87 70 60 56 55 52 47 44 41
100 88 66 34 27 29 30 31 34 37 41 46 40 39 42 42 43 42 41 42 39 37 35 37 40 39 41 52 70 85 92 82 70 62 52 47 44 40 41 41 41 40 38
87 64 40 24 25 27 28 31 35 40 42 40 41 43 44 44 45 44 45 42 40 38 39 35 37 37 44 56 54 49 47 44 43 41 39 41 41 40 38 36 32 32 31
62 40 29 27 28 30 31 34 43 44 42 41 42 45 48 47 45 49 47 46 42 43 38 39 36 39 43 44 39 33 30 31 32 32 33 34 30 32 28 28 26 26 25
44 37 34 34 32 33 38 45 44 46 46 45 48 49 49 48 50 50 48 42 43 39 38 36 40 42 39 35 29 26 27 27 26 27 23 23 21 18 15 13 13 14 12
43 38 37 36 36 39 43 44 45 50 49 53 52 54 55 56 54 50 44 41 32 32 36 35 35 32 28 28 28 26 25 18 18 19 15 15 10 9 9 8 8 8 8
38 36 36 37 41 41 42 44 48 51 53 53 56 60 59 57 52 49 40 36 39 37 36 30 25 25 23 23 22 18 15 13 11 10 7 7 7 7 7 7 7 7 6
38 38 42 42 39 41 44 46 52 53 53 62 58 54 56 53 46 39 37 36 36 38 31 26 23 22 24 19 13 11 9 6 6 6 5 6 6 6 6 6 6 5 5
40 41 41 39 42 46 46 50 55 59 68 59 62 58 55 44 39 37 37 40 34 25 23 23 25 23 16 12 10 6 5 5 5 5 4 3 4 4 5 5 5 4 4
38 41 44 46 49 52 55 56 65 66 68 68 63 58 53 40 40 40 36 27 24 22 23 23 16 13 11 8 6 5 5 5 4 4 3 4 5 5 6 5 5 5 5
Wind_Speed
35 35 35 35 37 37 37 38 41 43 43 46 47 50 52 55 55 59 58 53 50 45 46 47 50 52 52 53 51 48 44 39 37 33 31 31 29 27 25 25 24 21 18
39 38 38 40 40 40 41 42 43 45 46 49 51 51 54 56 57 60 56 51 46 44 46 48 51 52 52 54 53 50 45 41 36 35 33 32 29 30 28 28 29 30 26
43 42 42 42 43 44 43 45 46 47 49 51 52 55 56 57 59 61 55 50 46 46 46 49 52 54 55 56 55 51 47 43 39 35 35 34 32 31 29 30 29 31 33
46 46 45 46 47 46 46 49 49 50 53 54 55 55 57 59 60 62 54 49 47 47 47 50 52 53 56 57 58 54 48 45 41 37 35 35 34 33 32 30 29 29 30
49 49 48 49 50 49 48 51 52 51 53 57 57 57 60 61 62 62 51 49 49 49 50 52 53 54 57 58 59 56 51 47 43 38 36 35 35 35 33 31 32 30 29
52 52 52 51 51 52 51 54 54 55 56 58 58 59 61 62 64 59 50 50 51 51 53 55 56 58 59 59 60 58 52 47 42 39 36 37 37 36 36 34 35 33 32
54 54 54 55 53 53 53 57 57 58 59 59 61 61 62 65 63 55 51 52 52 53 55 56 58 60 62 62 61 58 52 47 42 38 37 37 38 39 39 38 38 36 35
54 54 54 55 55 55 57 60 61 58 62 63 61 63 66 67 60 55 53 54 56 58 59 60 62 63 64 65 65 59 51 47 43 40 39 39 39 40 41 42 41 39 39
54 53 55 55 56 57 62 64 64 63 67 68 65 67 67 64 59 57 57 58 59 60 62 63 64 66 66 66 65 59 50 45 43 41 39 40 41 42 43 44 44 44 45
56 57 58 59 60 61 66 67 67 68 72 69 67 68 64 59 59 61 59 61 63 64 66 66 68 68 68 68 67 59 49 44 42 41 41 41 43 45 46 47 47 48 49
60 61 61 62 63 66 68 69 71 70 72 69 68 64 60 59 60 62 66 66 67 67 69 71 72 71 72 72 70 58 47 44 42 42 41 42 44 46 48 50 52 54 55
65 66 64 65 67 68 70 71 73 72 69 67 64 61 60 62 65 65 67 68 71 75 74 73 75 75 76 76 74 61 51 47 48 48 48 50 50 52 53 55 57 59 62
68 68 67 68 67 68 70 71 73 67 64 63 62 63 64 66 67 68 69 69 70 75 79 82 82 81 80 80 75 65 57 55 54 55 57 58 60 61 63 65 67 68 69
68 67 68 64 64 66 67 67 61 60 63 63 66 68 70 71 71 72 73 71 71 73 80 85 89 88 87 87 84 73 66 66 66 67 69 71 72 72 73 75 77 79 80
68 66 64 61 61 61 62 59 60 63 65 68 70 73 74 74 75 77 76 75 75 75 77 88 92 94 94 92 86 83 78 78 77 78 81 83 85 86 88 89 90 90 90
64 63 61 62 61 61 61 61 65 67 69 71 74 77 78 79 80 80 80 82 84 83 83 88 91 93 91 88 87 84 85 87 91 92 92 94 95 97 99 101 102 103 103
63 62 62 63 64 64 66 68 71 72 73 75 77 80 81 82 84 85 86 89 92 93 93 94 97 98 94 92 91 93 93 95 98 102 104 106 108 111 111 112 114 115 115
63 64 65 65 66 67 70 72 74 76 77 79 82 83 84 86 88 90 92 96 98 101 102 102 103 102 102 101 98 99 103 107 110 114 116 117 120 123 124 125 126 125 122
66 66 66 67 68 70 73 76 77 78 79 82 84 86 88 91 93 95 98 101 104 107 110 111 108 109 107 107 107 110 112 115 119 124 126 127 128 129 130 130 125 121 117
67 68 68 70 71 74 76 77 78 81 83 85 88 90 94 96 98 100 103 107 110 112 116 115 115 114 113 114 118 122 124 127 128 130 131 132 129 126 123 119 116 114 112
69 71 71 73 75 77 78 79 82 84 86 90 92 96 98 101 103 106 110 113 116 119 118 121 120 120 121 126 131 133 134 135 133 132 126 119 118 116 114 111 110 109 106
71 73 75 77 79 80 81 83 85 87 90 93 97 100 103 106 110 114 118 121 126 126 125 125 125 128 133 137 138 140 135 129 118 117 113 110 109 109 110 109 107 105 105
74 76 78 80 80 83 85 86 88 90 95 98 101 103 108 113 117 119 124 126 128 130 132 134 137 139 142 143 140 134 125 114 109 110 106 97 102 98 99 97 100 101 100
78 80 81 83 85 86 88 89 92 96 100 102 106 111 114 118 123 126 126 128 128 131 136 141 146 148 144 142 130 117 112 106 101 98 94 85 89 86 87 90 92 92 93
81 83 84 86 86 88 91 92 96 100 103 108 112 117 121 125 128 130 129 130 133 138 144 149 149 145 139 126 119 110 102 92 87 88 83 74 76 71 73 77 78 78 78
84 83 84 86 87 90 94 98 100 104 108 113 118 121 125 130 131 131 134 137 140 144 144 141 137 126 119 114 108 97 89 85 80 77 71 68 66 60 61 67 67 66 64
Wind_Direction
276 278 282 285 286 289 293 294 297 301 303 304 309 311 314 318 324 326 326 324 325 327 330 332 333 333 334 335 334 328 325 319 313 308 308 310 311 312 312 315 312 309 304
272 276 280 281 286 289 291 293 297 302 303 306 308 311 313 318 322 325 324 322 324 325 327 329 330 330 330 331 331 327 321 315 309 300 295 294 295 297 300 299 301 302 300
272 275 277 281 283 287 290 292 296 299 304 306 308 309 313 317 321 325 322 320 320 321 324 327 327 327 328 328 328 325 319 315 305 300 291 290 288 286 292 294 291 289 291
269 274 277 279 282 285 290 292 294 301 304 306 307 311 312 316 320 323 319 318 318 321 324 325 325 325 326 327 326 324 317 311 303 295 292 288 288 286 287 292 292 289 287
268 271 275 277 281 285 288 290 295 299 301 303 306 307 310 315 318 319 315 315 316 319 321 321 322 323 325 325 324 321 316 310 301 291 288 287 285 284 285 289 291 289 282
267 270 274 277 280 284 287 289 293 298 301 303 305 305 308 313 315 315 312 313 314 317 318 319 321 322 321 322 322 319 314 308 299 288 285 284 283 284 284 284 287 285 283
267 271 274 277 280 283 285 288 294 297 299 300 301 303 306 311 315 311 309 312 313 313 314 315 317 318 319 320 321 319 313 306 297 285 281 283 282 280 280 281 282 281 280
267 270 274 276 278 281 284 289 294 297 296 299 299 302 306 311 311 309 308 311 311 311 312 313 314 316 317 320 321 319 311 304 295 285 277 275 276 277 276 276 277 277 275
266 270 272 275 279 283 286 288 292 294 297 298 298 302 307 310 309 307 307 309 310 310 310 311 312 313 315 317 320 317 310 302 295 288 282 277 274 275 277 276 276 276 275
265 268 272 275 279 283 286 290 292 293 297 296 299 303 306 306 307 306 307 308 308 310 310 310 310 311 312 316 320 315 306 299 294 290 286 283 279 276 276 276 276 276 275
264 268 272 276 281 284 286 290 291 294 295 295 300 304 305 304 305 305 306 307 308 309 310 310 309 310 312 315 317 311 295 290 288 287 285 284 281 280 277 276 275 274 274
264 268 273 277 281 285 287 289 293 292 292 298 301 301 302 301 302 303 305 306 308 310 309 308 308 310 312 315 315 308 292 283 283 284 283 282 280 277 275 274 272 271 271
264 269 274 278 281 284 286 290 290 293 296 297 298 299 300 301 301 303 303 304 308 309 309 308 308 309 311 312 310 302 290 283 280 278 277 277 276 276 274 273 272 270 268
265 269 273 277 280 284 285 289 293 294 295 295 297 299 300 301 302 301 301 302 305 306 309 309 310 310 310 310 307 300 294 290 287 285 284 283 280 276 274 274 272 270 269
265 268 272 276 279 282 288 290 292 292 294 296 298 299 301 300 300 300 300 301 302 303 306 308 309 311 309 307 303 300 296 294 291 289 288 287 286 284 281 278 274 271 269
263 268 271 275 278 282 286 289 290 293 294 296 297 299 300 299 299 299 299 300 302 302 303 304 306 306 303 300 299 299 298 296 295 293 291 290 289 287 286 284 283 281 279
263 266 269 274 277 282 286 288 291 292 294 295 297 298 299 299 299 299 299 301 302 303 304 304 305 304 300 298 297 296 296 296 295 293 292 291 289 287 285 283 281 279 278
262 265 269 274 280 284 286 289 291 293 295 295 297 298 298 298 299 300 301 302 303 303 303 304 304 301 300 298 296 295 295 295 294 292 290 289 288 287 285 283 282 281 281
261 265 270 276 282 287 288 290 291 293 294 295 297 297 298 298 300 300 302 302 302 303 304 304 303 301 299 297 296 295 295 293 291 290 290 288 287 286 286 285 284 282 281
263 267 272 278 283 287 289 291 292 293 295 296 297 298 298 299 300 301 301 302 303 303 303 302 301 300 299 298 297 296 295 294 294 294 294 293 292 288 286 285 283 281 279
266 270 275 280 284 287 289 291 292 294 296 297 297 297 299 299 300 300 300 302 303 303 300 301 299 300 298 298 297 300 301 301 299 295 293 291 289 289 285 283 281 279 276
269 273 278 282 285 287 289 290 293 295 296 296 297 299 300 300 300 301 302 302 303 302 301 300 301 300 299 300 300 301 301 300 298 296 293 290 288 285 284 284 281 278 275
273 276 280 283 285 287 289 291 293 294 295 297 297 298 298 299 301 301 302 302 302 302 302 303 303 302 303 304 304 303 303 300 298 294 291 290 286 286 284 282 279 277 275
274 278 281 283 285 288 290 292 293 294 296 297 296 297 298 299 300 301 300 301 301 302 302 301 302 305 305 305 305 303 301 299 298 294 291 290 287 284 282 280 278 276 275
276 279 282 285 287 288 290 292 294 295 296 297 298 299 299 300 300 300 302 301 302 303 304 305 306 305 306 305 304 303 302 300 298 295 292 292 289 287 284 281 278 276 275
277 281 283 285 288 290 291 293 295 296 298 298 300 300 300 300 301 301 301 302 303 304 305 304 305 306 305 305 305 305 305 304 302 299 299 297 294 290 287 283 281 281 279